Location: Unspecified
(0.0000°N, 0.0000°E)
Time: 20:26:00
(UTC+00:00)

Hubble Space Telescope - Pass Details

Date: 30 May 2023
Orbit: 525 x 528 km, 28.5° (Epoch: 04 June)

Event Time Altitude Azimuth Distance (km) Brightness Sun altitude
Rises 19:07:21 0° 330° (NNW) 2,630 5.2 -16.2°
Reaches altitude 10° 19:10:40 10° 359° (N) 1,744 3.7 -16.9°
Maximum altitude 19:12:36 13° 28° (NNE) 1,558 3.1 -17.4°
Enters shadow 19:13:47 12° 46° (NE) 1,632 3.0 -17.6°
